Time,TemperatureF,DewpointF,PressureIn,WindDirection,WindDirectionDegrees,WindSpeedMPH,WindSpeedGustMPH,Humidity,HourlyPrecipIn,Conditions,Clouds,dailyrainin,SoftwareType,DateUTC
2013-09-26 00:01:00,62.8,58.6,29.89,East,94,0.0,2.0,86,0.00,,---,0.00,VWS V14.01,2013-09-26 05:01:00,
2013-09-26 00:06:00,62.5,58.3,29.89,East,91,0.0,2.0,86,0.00,,---,0.00,VWS V14.01,2013-09-26 05:06:00,
2013-09-26 00:11:00,62.4,58.5,29.89,East,91,1.0,2.0,87,0.00,,---,0.00,VWS V14.01,2013-09-26 05:11:00,
2013-09-26 00:16:00,62.3,58.4,29.89,NE,53,1.0,2.0,87,0.00,,---,0.00,VWS V14.01,2013-09-26 05:16:00,
2013-09-26 00:21:00,62.3,58.4,29.89,ENE,71,1.0,2.0,87,0.00,,---,0.00,VWS V14.01,2013-09-26 05:21:00,
2013-09-26 00:26:00,62.3,58.4,29.89,East,89,1.0,3.0,87,0.00,,---,0.00,VWS V14.01,2013-09-26 05:26:00,
2013-09-26 00:31:00,62.3,58.4,29.88,East,91,0.0,3.0,87,0.00,,---,0.00,VWS V14.01,2013-09-26 05:31:00,
2013-09-26 00:36:00,62.3,58.4,29.88,ESE,112,0.0,4.0,87,0.00,,---,0.00,VWS V14.01,2013-09-26 05:36:00,
2013-09-26 00:41:00,62.4,58.5,29.88,East,91,0.0,4.0,87,0.00,,---,0.00,VWS V14.01,2013-09-26 05:41:00,
2013-09-26 00:47:00,62.5,58.6,29.88,ESE,114,0.0,4.0,87,0.00,,---,0.00,VWS V14.01,2013-09-26 05:47:00,
2013-09-26 00:52:00,62.5,58.6,29.89,NE,44,0.0,4.0,87,0.00,,---,0.00,VWS V14.01,2013-09-26 05:52:00,
2013-09-26 00:57:00,62.6,58.7,29.89,NE,53,2.0,4.0,87,0.00,,---,0.00,VWS V14.01,2013-09-26 05:57:00,
2013-09-26 01:02:00,62.6,58.7,29.89,East,83,0.0,1.0,87,0.00,,---,0.00,VWS V14.01,2013-09-26 06:02:00,
2013-09-26 01:07:00,62.5,58.6,29.89,ESE,105,0.0,1.0,87,0.00,,---,0.00,VWS V14.01,2013-09-26 06:07:00,
2013-09-26 01:12:00,62.4,58.5,29.89,ENE,68,0.0,1.0,87,0.00,,---,0.00,VWS V14.01,2013-09-26 06:12:00,
2013-09-26 01:17:00,62.3,58.4,29.89,ENE,68,0.0,1.0,87,0.00,,---,0.00,VWS V14.01,2013-09-26 06:17:00,
2013-09-26 01:22:00,62.0,58.1,29.90,SE,128,0.0,1.0,87,0.00,,---,0.00,VWS V14.01,2013-09-26 06:22:00,
2013-09-26 01:28:00,61.9,58.3,29.90,SE,128,0.0,1.0,88,0.00,,---,0.00,VWS V14.01,2013-09-26 06:28:00,
2013-09-26 01:33:00,61.8,58.2,29.90,SE,129,0.0,0.0,88,0.00,,---,0.00,VWS V14.01,2013-09-26 06:33:00,
2013-09-26 01:38:00,61.6,58.0,29.90,SE,129,0.0,0.0,88,0.00,,---,0.00,VWS V14.01,2013-09-26 06:38:00,
2013-09-26 01:43:00,61.4,57.8,29.90,SE,128,0.0,0.0,88,0.00,,---,0.00,VWS V14.01,2013-09-26 06:43:00,
2013-09-26 01:48:00,61.2,57.9,29.91,SE,128,0.0,0.0,89,0.00,,---,0.00,VWS V14.01,2013-09-26 06:48:00,
2013-09-26 01:53:00,61.1,57.8,29.91,SE,129,0.0,0.0,89,0.00,,---,0.00,VWS V14.01,2013-09-26 06:53:00,
2013-09-26 01:58:00,61.0,58.0,29.91,SE,128,0.0,0.0,90,0.00,,---,0.00,VWS V14.01,2013-09-26 06:58:00,
2013-09-26 02:03:00,61.1,58.2,29.91,East,80,0.0,0.0,90,0.00,,---,0.00,VWS V14.01,2013-09-26 07:03:00,
2013-09-26 02:09:00,61.2,58.2,29.91,East,80,0.0,0.0,90,0.00,,---,0.00,VWS V14.01,2013-09-26 07:09:00,
2013-09-26 02:14:00,61.1,58.2,29.91,ESE,120,0.0,1.0,90,0.00,,---,0.00,VWS V14.01,2013-09-26 07:14:00,
2013-09-26 02:19:00,61.1,58.2,29.91,ESE,103,0.0,1.0,90,0.00,,---,0.00,VWS V14.01,2013-09-26 07:19:00,
2013-09-26 02:24:00,61.0,58.0,29.91,East,101,0.0,2.0,90,0.00,,---,0.00,VWS V14.01,2013-09-26 07:24:00,
2013-09-26 02:29:00,60.9,58.0,29.91,East,101,0.0,0.0,90,0.00,,---,0.00,VWS V14.01,2013-09-26 07:29:00,
2013-09-26 02:34:00,60.8,57.8,29.91,East,82,1.0,2.0,90,0.00,,---,0.00,VWS V14.01,2013-09-26 07:34:00,
2013-09-26 02:39:00,60.8,58.2,29.91,East,80,2.0,2.0,91,0.00,,---,0.00,VWS V14.01,2013-09-26 07:39:00,
2013-09-26 02:44:00,60.9,58.0,29.91,East,94,1.0,3.0,90,0.00,,---,0.00,VWS V14.01,2013-09-26 07:44:00,
2013-09-26 02:49:00,60.9,58.0,29.91,East,94,1.0,3.0,90,0.00,,---,0.00,VWS V14.01,2013-09-26 07:49:00,
2013-09-26 02:54:00,60.8,57.8,29.91,East,98,0.0,4.0,90,0.00,,---,0.00,VWS V14.01,2013-09-26 07:54:00,
2013-09-26 03:00:00,60.8,58.2,29.91,ENE,75,2.0,2.0,91,0.00,,---,0.00,VWS V14.01,2013-09-26 08:00:00,
2013-09-26 03:05:00,60.8,58.2,29.91,ENE,72,2.0,4.0,91,0.00,,---,0.00,VWS V14.01,2013-09-26 08:05:00,
2013-09-26 03:10:00,60.7,58.1,29.91,ENE,71,0.0,4.0,91,0.00,,---,0.00,VWS V14.01,2013-09-26 08:10:00,
2013-09-26 03:15:00,60.7,58.1,29.91,ENE,72,0.0,4.0,91,0.00,,---,0.00,VWS V14.01,2013-09-26 08:15:00,
2013-09-26 03:20:00,60.6,58.0,29.91,East,83,1.0,4.0,91,0.00,,---,0.00,VWS V14.01,2013-09-26 08:20:00,
2013-09-26 03:25:00,60.5,57.9,29.91,ENE,75,1.0,4.0,91,0.00,,---,0.00,VWS V14.01,2013-09-26 08:25:00,
2013-09-26 03:30:00,60.5,57.9,29.91,East,101,0.0,0.0,91,0.00,,---,0.00,VWS V14.01,2013-09-26 08:30:00,
2013-09-26 03:35:00,60.5,58.2,29.91,East,92,0.0,3.0,92,0.00,,---,0.00,VWS V14.01,2013-09-26 08:35:00,
2013-09-26 03:40:00,60.4,58.1,29.91,East,81,2.0,3.0,92,0.00,,---,0.00,VWS V14.01,2013-09-26 08:40:00,
2013-09-26 03:45:00,60.4,58.1,29.91,ENE,65,0.0,3.0,92,0.00,,---,0.00,VWS V14.01,2013-09-26 08:45:00,
2013-09-26 03:50:00,60.3,58.0,29.91,East,85,1.0,4.0,92,0.00,,---,0.00,VWS V14.01,2013-09-26 08:50:00,
2013-09-26 03:55:00,60.1,57.8,29.91,East,90,1.0,4.0,92,0.00,,---,0.00,VWS V14.01,2013-09-26 08:55:00,
2013-09-26 04:00:00,59.9,57.6,29.91,ENE,75,1.0,2.0,92,0.00,,---,0.00,VWS V14.01,2013-09-26 09:00:00,
2013-09-26 04:05:00,59.7,57.4,29.91,ENE,71,2.0,3.0,92,0.00,,---,0.00,VWS V14.01,2013-09-26 09:05:00,
2013-09-26 04:10:00,59.6,57.3,29.91,ENE,72,3.0,4.0,92,0.00,,---,0.00,VWS V14.01,2013-09-26 09:10:00,
2013-09-26 04:16:00,59.6,57.6,29.91,ESE,107,0.0,4.0,93,0.00,,---,0.00,VWS V14.01,2013-09-26 09:16:00,
2013-09-26 04:21:00,59.6,57.6,29.91,East,96,1.0,5.0,93,0.00,,---,0.00,VWS V14.01,2013-09-26 09:21:00,
2013-09-26 04:26:00,59.6,57.6,29.91,ENE,67,0.0,5.0,93,0.00,,---,0.00,VWS V14.01,2013-09-26 09:26:00,
2013-09-26 04:31:00,59.6,57.6,29.91,East,92,2.0,4.0,93,0.00,,---,0.00,VWS V14.01,2013-09-26 09:31:00,
2013-09-26 04:36:00,59.7,57.7,29.91,East,100,3.0,5.0,93,0.00,,---,0.00,VWS V14.01,2013-09-26 09:36:00,
2013-09-26 04:41:00,59.7,57.7,29.91,ENE,76,2.0,6.0,93,0.00,,---,0.00,VWS V14.01,2013-09-26 09:41:00,
2013-09-26 04:46:00,59.7,57.7,29.91,East,101,0.0,6.0,93,0.00,,---,0.00,VWS V14.01,2013-09-26 09:46:00,
2013-09-26 04:51:00,59.7,57.7,29.91,East,82,0.0,6.0,93,0.00,,---,0.00,VWS V14.01,2013-09-26 09:51:00,
2013-09-26 04:56:00,59.6,57.6,29.91,ESE,104,0.0,6.0,93,0.00,,---,0.00,VWS V14.01,2013-09-26 09:56:00,
2013-09-26 05:01:00,59.5,57.5,29.91,East,90,2.0,2.0,93,0.00,,---,0.00,VWS V14.01,2013-09-26 10:01:00,
2013-09-26 05:06:00,59.3,57.3,29.91,ENE,68,2.0,5.0,93,0.00,,---,0.00,VWS V14.01,2013-09-26 10:06:00,
2013-09-26 05:11:00,59.2,57.5,29.91,East,82,1.0,5.0,94,0.00,,---,0.00,VWS V14.01,2013-09-26 10:11:00,
2013-09-26 05:16:00,59.1,57.4,29.91,ENE,65,0.0,5.0,94,0.00,,---,0.00,VWS V14.01,2013-09-26 10:16:00,
2013-09-26 05:21:00,59.1,57.4,29.91,ESE,103,2.0,5.0,94,0.00,,---,0.00,VWS V14.01,2013-09-26 10:21:00,
2013-09-26 05:26:00,59.2,57.5,29.91,ENE,72,1.0,5.0,94,0.00,,---,0.00,VWS V14.01,2013-09-26 10:26:00,
2013-09-26 05:32:00,59.2,57.5,29.91,NE,56,2.0,4.0,94,0.00,,---,0.00,VWS V14.01,2013-09-26 10:32:00,
2013-09-26 05:37:00,59.2,57.5,29.91,ESE,110,1.0,4.0,94,0.00,,---,0.00,VWS V14.01,2013-09-26 10:37:00,
2013-09-26 05:42:00,59.3,57.6,29.91,ENE,72,2.0,4.0,94,0.00,,---,0.00,VWS V14.01,2013-09-26 10:42:00,
2013-09-26 05:47:00,59.4,57.7,29.91,NE,36,1.0,6.0,94,0.00,,---,0.00,VWS V14.01,2013-09-26 10:47:00,
2013-09-26 05:52:00,59.4,57.7,29.91,East,79,3.0,6.0,94,0.00,,---,0.00,VWS V14.01,2013-09-26 10:52:00,
2013-09-26 05:57:00,59.5,57.8,29.91,ENE,72,2.0,6.0,94,0.00,,---,0.00,VWS V14.01,2013-09-26 10:57:00,
2013-09-26 06:02:00,59.6,57.6,29.91,ENE,72,5.0,5.0,93,0.00,,---,0.00,VWS V14.01,2013-09-26 11:02:00,
2013-09-26 06:07:00,59.7,57.7,29.91,East,91,5.0,7.0,93,0.00,,---,0.00,VWS V14.01,2013-09-26 11:07:00,
2013-09-26 06:12:00,59.9,57.6,29.91,East,85,3.0,9.0,92,0.00,,---,0.00,VWS V14.01,2013-09-26 11:12:00,
2013-09-26 06:18:00,59.9,57.6,29.91,East,85,2.0,9.0,92,0.00,,---,0.00,VWS V14.01,2013-09-26 11:18:00,
2013-09-26 06:23:00,59.9,57.3,29.91,NE,44,2.0,9.0,91,0.00,,---,0.00,VWS V14.01,2013-09-26 11:23:00,
2013-09-26 06:28:00,59.8,57.2,29.91,SE,141,3.0,9.0,91,0.00,,---,0.00,VWS V14.01,2013-09-26 11:28:00,
2013-09-26 06:33:00,59.8,57.2,29.91,NE,49,3.0,10.0,91,0.00,,---,0.00,VWS V14.01,2013-09-26 11:33:00,
2013-09-26 06:38:00,59.7,56.8,29.91,East,86,1.0,10.0,90,0.00,,---,0.00,VWS V14.01,2013-09-26 11:38:00,
2013-09-26 06:43:00,59.7,56.8,29.91,East,98,9.0,10.0,90,0.00,,---,0.00,VWS V14.01,2013-09-26 11:43:00,
2013-09-26 06:48:00,59.6,56.7,29.91,East,101,3.0,10.0,90,0.00,,---,0.00,VWS V14.01,2013-09-26 11:48:00,
2013-09-26 06:53:00,59.6,56.7,29.91,South,181,0.0,10.0,90,0.00,,---,0.00,VWS V14.01,2013-09-26 11:53:00,
2013-09-26 06:58:00,59.6,56.7,29.91,East,95,1.0,10.0,90,0.00,,---,0.00,VWS V14.01,2013-09-26 11:58:00,
2013-09-26 07:03:00,59.6,56.4,29.92,East,80,5.0,8.0,89,0.00,,---,0.00,VWS V14.01,2013-09-26 12:03:00,
2013-09-26 07:09:00,59.6,56.4,29.92,East,79,4.0,9.0,89,0.00,,---,0.00,VWS V14.01,2013-09-26 12:09:00,
2013-09-26 07:14:00,59.5,56.3,29.92,ENE,60,2.0,9.0,89,0.00,,---,0.00,VWS V14.01,2013-09-26 12:14:00,
2013-09-26 07:19:00,59.5,56.3,29.92,ESE,113,11.0,11.0,89,0.00,,---,0.00,VWS V14.01,2013-09-26 12:19:00,
2013-09-26 07:24:00,59.5,56.0,29.92,ESE,103,1.0,11.0,88,0.00,,---,0.00,VWS V14.01,2013-09-26 12:24:00,
2013-09-26 07:29:00,59.5,56.0,29.92,ENE,57,7.0,7.0,88,0.00,,---,0.00,VWS V14.01,2013-09-26 12:29:00,
2013-09-26 07:34:00,59.6,56.0,29.93,NE,36,0.0,8.0,88,0.00,,---,0.00,VWS V14.01,2013-09-26 12:34:00,
2013-09-26 07:39:00,59.8,55.9,29.93,WSW,242,1.0,8.0,87,0.00,,---,0.00,VWS V14.01,2013-09-26 12:39:00,
2013-09-26 07:45:00,59.9,56.0,29.93,SE,132,4.0,8.0,87,0.00,,---,0.00,VWS V14.01,2013-09-26 12:45:00,
2013-09-26 07:50:00,60.0,56.1,29.93,ENE,72,5.0,8.0,87,0.00,,---,0.00,VWS V14.01,2013-09-26 12:50:00,
2013-09-26 07:55:00,60.1,55.9,29.93,SE,134,3.0,8.0,86,0.00,,---,0.00,VWS V14.01,2013-09-26 12:55:00,
2013-09-26 08:00:00,60.2,56.0,29.93,ENE,74,3.0,4.0,86,0.00,,---,0.00,VWS V14.01,2013-09-26 13:00:00,
2013-09-26 08:05:00,60.2,56.0,29.93,SE,126,3.0,7.0,86,0.00,,---,0.00,VWS V14.01,2013-09-26 13:05:00,
2013-09-26 08:10:00,60.4,56.2,29.93,WNW,293,0.0,8.0,86,0.00,,---,0.00,VWS V14.01,2013-09-26 13:10:00,
2013-09-26 08:15:00,60.6,56.1,29.93,East,98,4.0,8.0,85,0.00,,---,0.00,VWS V14.01,2013-09-26 13:15:00,
2013-09-26 08:20:00,60.5,56.0,29.93,SE,134,2.0,11.0,85,0.00,,---,0.00,VWS V14.01,2013-09-26 13:20:00,
2013-09-26 08:25:00,60.9,56.7,29.93,ENE,75,3.0,11.0,86,0.00,,---,0.00,VWS V14.01,2013-09-26 13:25:00,
2013-09-26 08:31:00,61.1,56.2,29.93,ENE,71,5.0,8.0,84,0.00,,---,0.00,VWS V14.01,2013-09-26 13:31:00,
2013-09-26 08:36:00,61.1,56.2,29.93,SE,134,5.0,9.0,84,0.00,,---,0.00,VWS V14.01,2013-09-26 13:36:00,
2013-09-26 08:41:00,61.4,56.9,29.93,East,89,5.0,9.0,85,0.00,,---,0.00,VWS V14.01,2013-09-26 13:41:00,
2013-09-26 08:46:00,61.7,56.8,29.93,ENE,58,2.0,9.0,84,0.00,,---,0.00,VWS V14.01,2013-09-26 13:46:00,
2013-09-26 08:51:00,62.1,57.2,29.93,East,83,2.0,9.0,84,0.00,,---,0.00,VWS V14.01,2013-09-26 13:51:00,
2013-09-26 08:56:00,62.6,57.4,29.94,SE,134,4.0,9.0,83,0.00,,---,0.00,VWS V14.01,2013-09-26 13:56:00,
2013-09-26 09:01:00,62.9,57.7,29.94,South,176,1.0,7.0,83,0.00,,---,0.00,VWS V14.01,2013-09-26 14:01:00,
2013-09-26 09:06:00,63.2,57.6,29.94,East,93,6.0,9.0,82,0.00,,---,0.00,VWS V14.01,2013-09-26 14:06:00,
2013-09-26 09:11:00,63.2,58.0,29.94,ENE,78,3.0,9.0,83,0.00,,---,0.00,VWS V14.01,2013-09-26 14:11:00,
2013-09-26 09:16:00,63.6,58.3,29.94,ESE,117,1.0,9.0,83,0.00,,---,0.00,VWS V14.01,2013-09-26 14:16:00,
2013-09-26 09:22:00,64.1,58.5,29.95,East,91,3.0,9.0,82,0.00,,---,0.00,VWS V14.01,2013-09-26 14:22:00,
2013-09-26 09:27:00,64.7,59.1,29.95,ESE,114,2.0,9.0,82,0.00,,---,0.00,VWS V14.01,2013-09-26 14:27:00,
2013-09-26 09:32:00,65.1,59.1,29.95,WSW,237,3.0,5.0,81,0.00,,---,0.00,VWS V14.01,2013-09-26 14:32:00,
2013-09-26 09:37:00,65.4,59.4,29.95,SE,129,1.0,6.0,81,0.00,,---,0.00,VWS V14.01,2013-09-26 14:37:00,
2013-09-26 09:42:00,65.4,59.1,29.95,NE,51,0.0,10.0,80,0.00,,---,0.00,VWS V14.01,2013-09-26 14:42:00,
2013-09-26 09:47:00,66.0,60.0,29.95,SSE,165,1.0,10.0,81,0.00,,---,0.00,VWS V14.01,2013-09-26 14:47:00,
2013-09-26 09:52:00,66.4,60.0,29.95,East,92,3.0,10.0,80,0.00,,---,0.00,VWS V14.01,2013-09-26 14:52:00,
2013-09-26 09:57:00,66.9,60.5,29.95,SSE,168,2.0,10.0,80,0.00,,---,0.00,VWS V14.01,2013-09-26 14:57:00,
2013-09-26 10:02:00,67.5,60.8,29.95,ESE,103,6.0,6.0,79,0.00,,---,0.00,VWS V14.01,2013-09-26 15:02:00,
2013-09-26 10:07:00,67.7,61.0,29.95,ENE,68,2.0,8.0,79,0.00,,---,0.00,VWS V14.01,2013-09-26 15:07:00,
2013-09-26 10:12:00,67.9,61.2,29.95,NNE,17,3.0,9.0,79,0.00,,---,0.00,VWS V14.01,2013-09-26 15:12:00,
2013-09-26 10:18:00,68.3,61.2,29.95,SE,135,3.0,9.0,78,0.00,,---,0.00,VWS V14.01,2013-09-26 15:18:00,
2013-09-26 10:23:00,69.0,62.2,29.95,SE,124,0.0,9.0,79,0.00,,---,0.00,VWS V14.01,2013-09-26 15:23:00,
2013-09-26 10:28:00,69.6,62.1,29.95,ESE,107,8.0,11.0,77,0.00,,---,0.00,VWS V14.01,2013-09-26 15:28:00,
2013-09-26 10:33:00,69.6,62.1,29.94,SSW,200,4.0,9.0,77,0.00,,---,0.00,VWS V14.01,2013-09-26 15:33:00,
2013-09-26 10:38:00,70.1,62.6,29.94,SE,131,5.0,9.0,77,0.00,,---,0.00,VWS V14.01,2013-09-26 15:38:00,
2013-09-26 10:43:00,70.7,62.8,29.94,East,84,4.0,10.0,76,0.00,,---,0.00,VWS V14.01,2013-09-26 15:43:00,
2013-09-26 10:48:00,71.1,63.2,29.94,SE,136,2.0,14.0,76,0.00,,---,0.00,VWS V14.01,2013-09-26 15:48:00,
2013-09-26 10:54:00,71.3,63.3,29.94,ESE,120,10.0,14.0,76,0.00,,---,0.00,VWS V14.01,2013-09-26 15:54:00,
2013-09-26 10:59:00,71.8,63.8,29.94,WSW,241,1.0,6.0,76,0.00,,---,0.00,VWS V14.01,2013-09-26 15:59:00,
2013-09-26 11:04:00,72.4,63.7,29.94,East,91,10.0,11.0,74,0.00,,---,0.00,VWS V14.01,2013-09-26 16:04:00,
2013-09-26 11:09:00,72.8,64.0,29.93,South,188,5.0,11.0,74,0.00,,---,0.00,VWS V14.01,2013-09-26 16:09:00,
2013-09-26 11:15:00,73.2,64.0,29.94,SSE,148,5.0,20.0,73,0.00,,---,0.00,VWS V14.01,2013-09-26 16:15:00,
2013-09-26 11:20:00,73.7,64.9,29.93,SSW,205,2.0,20.0,74,0.00,,---,0.00,VWS V14.01,2013-09-26 16:20:00,
2013-09-26 11:25:00,74.3,64.7,29.93,South,188,3.0,20.0,72,0.00,,---,0.00,VWS V14.01,2013-09-26 16:25:00,
2013-09-26 11:30:00,74.8,64.8,29.93,SSE,156,3.0,11.0,71,0.00,,---,0.00,VWS V14.01,2013-09-26 16:30:00,
2013-09-26 11:35:00,75.1,64.7,29.93,SSE,148,15.0,15.0,70,0.00,,---,0.00,VWS V14.01,2013-09-26 16:35:00,
2013-09-26 11:40:00,75.4,64.9,29.93,South,190,10.0,19.0,70,0.00,,---,0.00,VWS V14.01,2013-09-26 16:40:00,
2013-09-26 11:45:00,76.0,65.1,29.93,ESE,110,10.0,19.0,69,0.00,,---,0.00,VWS V14.01,2013-09-26 16:45:00,
2013-09-26 11:50:00,76.0,65.1,29.92,East,96,2.0,19.0,69,0.00,,---,0.00,VWS V14.01,2013-09-26 16:50:00,
2013-09-26 11:55:00,76.4,64.6,29.93,ENE,70,11.0,19.0,67,0.00,,---,0.00,VWS V14.01,2013-09-26 16:55:00,
2013-09-26 12:00:00,76.8,64.6,29.93,SE,141,6.0,14.0,66,0.00,,---,0.00,VWS V14.01,2013-09-26 17:00:00,
2013-09-26 12:05:00,77.0,64.8,29.92,ESE,105,11.0,17.0,66,0.00,,---,0.00,VWS V14.01,2013-09-26 17:05:00,
2013-09-26 12:11:00,77.4,64.7,29.92,SE,128,16.0,17.0,65,0.00,,---,0.00,VWS V14.01,2013-09-26 17:11:00,
2013-09-26 12:16:00,77.5,64.4,29.92,SW,228,8.0,17.0,64,0.00,,---,0.00,VWS V14.01,2013-09-26 17:16:00,
2013-09-26 12:21:00,77.9,64.8,29.92,SSW,195,4.0,17.0,64,0.00,,---,0.00,VWS V14.01,2013-09-26 17:21:00,
2013-09-26 12:26:00,78.2,65.0,29.92,SW,222,3.0,17.0,64,0.00,,---,0.00,VWS V14.01,2013-09-26 17:26:00,
2013-09-26 12:31:00,78.4,64.8,29.92,SSE,148,7.0,14.0,63,0.00,,---,0.00,VWS V14.01,2013-09-26 17:31:00,
2013-09-26 12:36:00,78.5,64.4,29.91,ESE,102,7.0,18.0,62,0.00,,---,0.00,VWS V14.01,2013-09-26 17:36:00,
2013-09-26 12:41:00,78.8,64.7,29.91,WNW,293,4.0,18.0,62,0.00,,---,0.00,VWS V14.01,2013-09-26 17:41:00,
2013-09-26 12:46:00,79.1,65.0,29.91,ESE,115,8.0,18.0,62,0.00,,---,0.00,VWS V14.01,2013-09-26 17:46:00,
2013-09-26 12:52:00,79.0,64.9,29.91,SSW,200,10.0,18.0,62,0.00,,---,0.00,VWS V14.01,2013-09-26 17:52:00,
2013-09-26 12:57:00,79.1,64.5,29.91,South,177,3.0,18.0,61,0.00,,---,0.00,VWS V14.01,2013-09-26 17:57:00,
2013-09-26 13:02:00,79.4,64.8,29.91,SSE,160,1.0,9.0,61,0.00,,---,0.00,VWS V14.01,2013-09-26 18:02:00,
2013-09-26 13:07:00,79.9,64.3,29.91,SSW,204,7.0,11.0,59,0.00,,---,0.00,VWS V14.01,2013-09-26 18:07:00,
2013-09-26 13:13:00,80.2,64.1,29.90,SSW,194,11.0,13.0,58,0.00,,---,0.00,VWS V14.01,2013-09-26 18:13:00,
2013-09-26 13:18:00,80.3,64.7,29.90,SE,125,14.0,16.0,59,0.00,,---,0.00,VWS V14.01,2013-09-26 18:18:00,
2013-09-26 13:23:00,80.5,64.9,29.90,NE,56,2.0,16.0,59,0.00,,---,0.00,VWS V14.01,2013-09-26 18:23:00,
2013-09-26 13:28:00,80.7,64.6,29.90,ENE,70,13.0,19.0,58,0.00,,---,0.00,VWS V14.01,2013-09-26 18:28:00,
2013-09-26 13:34:00,80.9,64.2,29.90,ESE,120,11.0,14.0,57,0.00,,---,0.00,VWS V14.01,2013-09-26 18:34:00,
2013-09-26 13:39:00,81.1,64.4,29.89,ESE,109,4.0,15.0,57,0.00,,---,0.00,VWS V14.01,2013-09-26 18:39:00,
2013-09-26 13:44:00,81.1,63.9,29.89,SSE,151,4.0,15.0,56,0.00,,---,0.00,VWS V14.01,2013-09-26 18:44:00,
2013-09-26 13:49:00,81.3,64.1,29.89,SSE,156,9.0,17.0,56,0.00,,---,0.00,VWS V14.01,2013-09-26 18:49:00,
2013-09-26 13:54:00,81.4,64.2,29.89,NNE,22,3.0,17.0,56,0.00,,---,0.00,VWS V14.01,2013-09-26 18:54:00,
2013-09-26 13:59:00,81.5,63.8,29.89,SSW,212,6.0,9.0,55,0.00,,---,0.00,VWS V14.01,2013-09-26 18:59:00,
2013-09-26 14:04:00,81.6,64.4,29.89,SSW,198,4.0,14.0,56,0.00,,---,0.00,VWS V14.01,2013-09-26 19:04:00,
2013-09-26 14:09:00,81.7,64.0,29.88,ENE,73,8.0,14.0,55,0.00,,---,0.00,VWS V14.01,2013-09-26 19:09:00,
2013-09-26 14:14:00,81.7,64.0,29.88,SE,124,12.0,14.0,55,0.00,,---,0.00,VWS V14.01,2013-09-26 19:14:00,
2013-09-26 14:20:00,81.8,64.1,29.88,East,94,8.0,14.0,55,0.00,,---,0.00,VWS V14.01,2013-09-26 19:20:00,
2013-09-26 14:25:00,82.1,64.9,29.88,SSE,158,1.0,14.0,56,0.00,,---,0.00,VWS V14.01,2013-09-26 19:25:00,
2013-09-26 14:30:00,82.5,64.7,29.88,ESE,120,3.0,3.0,55,0.00,,---,0.00,VWS V14.01,2013-09-26 19:30:00,
2013-09-26 14:35:00,82.4,64.1,29.88,SE,126,2.0,12.0,54,0.00,,---,0.00,VWS V14.01,2013-09-26 19:35:00,
2013-09-26 14:40:00,82.4,64.6,29.88,SSW,197,1.0,12.0,55,0.00,,---,0.00,VWS V14.01,2013-09-26 19:40:00,
2013-09-26 14:45:00,82.4,64.1,29.88,SSE,158,10.0,13.0,54,0.00,,---,0.00,VWS V14.01,2013-09-26 19:45:00,
2013-09-26 14:50:00,82.5,64.2,29.88,SSW,206,8.0,13.0,54,0.00,,---,0.00,VWS V14.01,2013-09-26 19:50:00,
2013-09-26 14:55:00,82.5,64.2,29.88,ESE,116,9.0,13.0,54,0.00,,---,0.00,VWS V14.01,2013-09-26 19:55:00,
2013-09-26 15:00:00,82.4,63.6,29.88,East,84,5.0,11.0,53,0.00,,---,0.00,VWS V14.01,2013-09-26 20:00:00,
2013-09-26 15:05:00,82.3,64.0,29.87,SSE,148,5.0,12.0,54,0.00,,---,0.00,VWS V14.01,2013-09-26 20:05:00,
2013-09-26 15:11:00,82.5,63.7,29.87,SE,145,4.0,12.0,53,0.00,,---,0.00,VWS V14.01,2013-09-26 20:11:00,
2013-09-26 15:16:00,82.6,63.8,29.87,ESE,103,7.0,12.0,53,0.00,,---,0.00,VWS V14.01,2013-09-26 20:16:00,
2013-09-26 15:21:00,82.4,64.1,29.87,SE,145,5.0,19.0,54,0.00,,---,0.00,VWS V14.01,2013-09-26 20:21:00,
2013-09-26 15:26:00,82.6,64.3,29.87,ESE,104,8.0,19.0,54,0.00,,---,0.00,VWS V14.01,2013-09-26 20:26:00,
2013-09-26 15:31:00,82.5,63.7,29.87,SE,129,7.0,12.0,53,0.00,,---,0.00,VWS V14.01,2013-09-26 20:31:00,
2013-09-26 15:37:00,82.7,63.8,29.87,SSE,148,5.0,14.0,53,0.00,,---,0.00,VWS V14.01,2013-09-26 20:37:00,
2013-09-26 15:42:00,82.8,63.9,29.86,SW,226,3.0,14.0,53,0.00,,---,0.00,VWS V14.01,2013-09-26 20:42:00,
2013-09-26 15:47:00,82.7,63.3,29.87,SSE,148,3.0,14.0,52,0.00,,---,0.00,VWS V14.01,2013-09-26 20:47:00,
2013-09-26 15:52:00,82.7,63.8,29.87,SSW,208,3.0,14.0,53,0.00,,---,0.00,VWS V14.01,2013-09-26 20:52:00,
2013-09-26 15:57:00,82.9,64.6,29.86,South,188,2.0,14.0,54,0.00,,---,0.00,VWS V14.01,2013-09-26 20:57:00,
2013-09-26 16:02:00,83.0,63.6,29.86,SSE,148,5.0,11.0,52,0.00,,---,0.00,VWS V14.01,2013-09-26 21:02:00,
2013-09-26 16:07:00,82.8,63.4,29.86,East,86,4.0,16.0,52,0.00,,---,0.00,VWS V14.01,2013-09-26 21:07:00,
2013-09-26 16:12:00,82.7,63.3,29.86,ESE,114,9.0,16.0,52,0.00,,---,0.00,VWS V14.01,2013-09-26 21:12:00,
2013-09-26 16:18:00,82.9,63.5,29.86,SE,142,4.0,16.0,52,0.00,,---,0.00,VWS V14.01,2013-09-26 21:18:00,
2013-09-26 16:23:00,82.9,64.0,29.86,East,97,7.0,16.0,53,0.00,,---,0.00,VWS V14.01,2013-09-26 21:23:00,
2013-09-26 16:28:00,82.9,63.5,29.86,South,172,2.0,16.0,52,0.00,,---,0.00,VWS V14.01,2013-09-26 21:28:00,
2013-09-26 16:33:00,82.8,63.9,29.86,North,357,2.0,9.0,53,0.00,,---,0.00,VWS V14.01,2013-09-26 21:33:00,
2013-09-26 16:38:00,82.8,63.4,29.86,South,179,6.0,15.0,52,0.00,,---,0.00,VWS V14.01,2013-09-26 21:38:00,
2013-09-26 16:43:00,82.9,63.5,29.86,SE,138,6.0,15.0,52,0.00,,---,0.00,VWS V14.01,2013-09-26 21:43:00,
2013-09-26 16:48:00,82.7,63.3,29.86,ESE,106,8.0,15.0,52,0.00,,---,0.00,VWS V14.01,2013-09-26 21:48:00,
2013-09-26 16:54:00,82.7,63.8,29.86,SE,126,3.0,15.0,53,0.00,,---,0.00,VWS V14.01,2013-09-26 21:54:00,
2013-09-26 16:59:00,82.5,63.7,29.86,ESE,102,6.0,6.0,53,0.00,,---,0.00,VWS V14.01,2013-09-26 21:59:00,
2013-09-26 17:04:00,82.5,63.1,29.86,ESE,112,8.0,12.0,52,0.00,,---,0.00,VWS V14.01,2013-09-26 22:04:00,
2013-09-26 17:09:00,82.5,63.1,29.86,WSW,238,5.0,15.0,52,0.00,,---,0.00,VWS V14.01,2013-09-26 22:09:00,
2013-09-26 17:14:00,82.5,63.1,29.86,ESE,114,2.0,15.0,52,0.00,,---,0.00,VWS V14.01,2013-09-26 22:14:00,
2013-09-26 17:19:00,82.4,63.0,29.86,SW,219,5.0,15.0,52,0.00,,---,0.00,VWS V14.01,2013-09-26 22:19:00,
2013-09-26 17:24:00,82.3,62.4,29.86,East,84,5.0,15.0,51,0.00,,---,0.00,VWS V14.01,2013-09-26 22:24:00,
2013-09-26 17:29:00,82.1,62.8,29.86,SE,136,6.0,7.0,52,0.00,,---,0.00,VWS V14.01,2013-09-26 22:29:00,
2013-09-26 17:34:00,82.1,62.8,29.86,East,92,6.0,13.0,52,0.00,,---,0.00,VWS V14.01,2013-09-26 22:34:00,
2013-09-26 17:40:00,81.9,63.1,29.86,WNW,295,1.0,13.0,53,0.00,,---,0.00,VWS V14.01,2013-09-26 22:40:00,
2013-09-26 17:45:00,81.9,63.1,29.87,SE,139,10.0,13.0,53,0.00,,---,0.00,VWS V14.01,2013-09-26 22:45:00,
2013-09-26 17:50:00,81.7,62.9,29.87,SE,124,3.0,13.0,53,0.00,,---,0.00,VWS V14.01,2013-09-26 22:50:00,
2013-09-26 17:55:00,81.6,62.8,29.86,South,183,4.0,13.0,53,0.00,,---,0.00,VWS V14.01,2013-09-26 22:55:00,
2013-09-26 18:00:00,81.5,62.7,29.87,SSE,148,2.0,11.0,53,0.00,,---,0.00,VWS V14.01,2013-09-26 23:00:00,
2013-09-26 18:05:00,81.3,62.5,29.87,SSE,158,2.0,14.0,53,0.00,,---,0.00,VWS V14.01,2013-09-26 23:05:00,
2013-09-26 18:11:00,81.1,62.4,29.87,South,191,3.0,14.0,53,0.00,,---,0.00,VWS V14.01,2013-09-26 23:11:00,
2013-09-26 18:16:00,80.8,62.6,29.86,ENE,76,4.0,14.0,54,0.00,,---,0.00,VWS V14.01,2013-09-26 23:16:00,
2013-09-26 18:21:00,80.5,62.3,29.86,SSE,162,2.0,14.0,54,0.00,,---,0.00,VWS V14.01,2013-09-26 23:21:00,
2013-09-26 18:26:00,80.1,62.5,29.86,ENE,68,4.0,14.0,55,0.00,,---,0.00,VWS V14.01,2013-09-26 23:26:00,
2013-09-26 18:31:00,79.8,62.7,29.86,SE,132,1.0,6.0,56,0.00,,---,0.00,VWS V14.01,2013-09-26 23:31:00,
2013-09-26 18:36:00,79.5,63.0,29.86,East,84,2.0,6.0,57,0.00,,---,0.00,VWS V14.01,2013-09-26 23:36:00,
2013-09-26 18:41:00,79.3,63.3,29.87,SE,145,0.0,7.0,58,0.00,,---,0.00,VWS V14.01,2013-09-26 23:41:00,
2013-09-26 18:46:00,78.9,62.9,29.86,WSW,248,1.0,7.0,58,0.00,,---,0.00,VWS V14.01,2013-09-26 23:46:00,
2013-09-26 18:51:00,78.5,63.0,29.86,ESE,103,4.0,8.0,59,0.00,,---,0.00,VWS V14.01,2013-09-26 23:51:00,
2013-09-26 18:56:00,78.2,63.2,29.86,ENE,68,0.0,8.0,60,0.00,,---,0.00,VWS V14.01,2013-09-26 23:56:00,
2013-09-26 19:02:00,78.0,63.0,29.86,ESE,123,4.0,7.0,60,0.00,,---,0.00,VWS V14.01,2013-09-27 00:02:00,
2013-09-26 19:07:00,77.7,62.7,29.86,ENE,62,3.0,7.0,60,0.00,,---,0.00,VWS V14.01,2013-09-27 00:07:00,
2013-09-26 19:12:00,77.4,62.9,29.86,ENE,58,2.0,7.0,61,0.00,,---,0.00,VWS V14.01,2013-09-27 00:12:00,
2013-09-26 19:17:00,77.2,62.7,29.86,NE,40,1.0,7.0,61,0.00,,---,0.00,VWS V14.01,2013-09-27 00:17:00,
2013-09-26 19:23:00,77.0,63.0,29.86,ENE,61,3.0,7.0,62,0.00,,---,0.00,VWS V14.01,2013-09-27 00:23:00,
2013-09-26 19:28:00,76.8,62.8,29.86,SE,145,2.0,7.0,62,0.00,,---,0.00,VWS V14.01,2013-09-27 00:28:00,
2013-09-26 19:33:00,76.6,62.6,29.87,WSW,250,0.0,5.0,62,0.00,,---,0.00,VWS V14.01,2013-09-27 00:33:00,
2013-09-26 19:38:00,76.3,62.3,29.87,East,87,1.0,6.0,62,0.00,,---,0.00,VWS V14.01,2013-09-27 00:38:00,
2013-09-26 19:43:00,76.1,62.6,29.87,NE,55,3.0,6.0,63,0.00,,---,0.00,VWS V14.01,2013-09-27 00:43:00,
2013-09-26 19:48:00,75.9,62.4,29.87,ENE,58,3.0,7.0,63,0.00,,---,0.00,VWS V14.01,2013-09-27 00:48:00,
2013-09-26 19:53:00,75.9,62.4,29.87,ESE,105,1.0,7.0,63,0.00,,---,0.00,VWS V14.01,2013-09-27 00:53:00,
2013-09-26 19:58:00,75.8,62.3,29.87,NNW,335,1.0,7.0,63,0.00,,---,0.00,VWS V14.01,2013-09-27 00:58:00,
2013-09-26 20:03:00,75.7,62.2,29.87,ESE,117,4.0,5.0,63,0.00,,---,0.00,VWS V14.01,2013-09-27 01:03:00,
2013-09-26 20:09:00,75.5,62.5,29.87,ESE,123,0.0,5.0,64,0.00,,---,0.00,VWS V14.01,2013-09-27 01:09:00,
2013-09-26 20:14:00,75.4,62.4,29.88,ENE,73,2.0,7.0,64,0.00,,---,0.00,VWS V14.01,2013-09-27 01:14:00,
2013-09-26 20:19:00,75.2,62.2,29.88,ESE,116,1.0,7.0,64,0.00,,---,0.00,VWS V14.01,2013-09-27 01:19:00,
2013-09-26 20:24:00,74.9,62.3,29.88,NE,37,0.0,7.0,65,0.00,,---,0.00,VWS V14.01,2013-09-27 01:24:00,
2013-09-26 20:29:00,74.5,62.4,29.88,SSE,148,1.0,2.0,66,0.00,,---,0.00,VWS V14.01,2013-09-27 01:29:00,
2013-09-26 20:34:00,74.1,62.5,29.88,ESE,106,0.0,3.0,67,0.00,,---,0.00,VWS V14.01,2013-09-27 01:34:00,
2013-09-26 20:40:00,73.8,62.6,29.89,SE,125,0.0,4.0,68,0.00,,---,0.00,VWS V14.01,2013-09-27 01:40:00,
2013-09-26 20:45:00,73.5,62.3,29.89,ESE,118,0.0,4.0,68,0.00,,---,0.00,VWS V14.01,2013-09-27 01:45:00,
2013-09-26 20:50:00,73.2,62.4,29.89,SSE,152,1.0,4.0,69,0.00,,---,0.00,VWS V14.01,2013-09-27 01:50:00,
2013-09-26 20:55:00,72.9,62.5,29.89,SE,146,0.0,4.0,70,0.00,,---,0.00,VWS V14.01,2013-09-27 01:55:00,
2013-09-26 21:00:00,72.7,62.4,29.89,ENE,68,2.0,3.0,70,0.00,,---,0.00,VWS V14.01,2013-09-27 02:00:00,
2013-09-26 21:05:00,72.6,62.7,29.89,ESE,110,0.0,5.0,71,0.00,,---,0.00,VWS V14.01,2013-09-27 02:05:00,
2013-09-26 21:10:00,72.4,62.5,29.89,West,260,0.0,5.0,71,0.00,,---,0.00,VWS V14.01,2013-09-27 02:10:00,
2013-09-26 21:16:00,72.2,62.3,29.90,SSW,212,1.0,5.0,71,0.00,,---,0.00,VWS V14.01,2013-09-27 02:16:00,
2013-09-26 21:21:00,72.1,62.6,29.90,SE,145,1.0,5.0,72,0.00,,---,0.00,VWS V14.01,2013-09-27 02:21:00,
2013-09-26 21:26:00,72.1,62.6,29.90,SSE,148,2.0,6.0,72,0.00,,---,0.00,VWS V14.01,2013-09-27 02:26:00,
2013-09-26 21:31:00,72.1,62.6,29.90,ESE,113,0.0,6.0,72,0.00,,---,0.00,VWS V14.01,2013-09-27 02:31:00,
2013-09-26 21:36:00,72.0,62.5,29.90,SSE,151,2.0,6.0,72,0.00,,---,0.00,VWS V14.01,2013-09-27 02:36:00,
2013-09-26 21:42:00,71.9,62.4,29.91,SSE,152,3.0,6.0,72,0.00,,---,0.00,VWS V14.01,2013-09-27 02:42:00,
2013-09-26 21:47:00,71.8,62.7,29.91,SE,142,2.0,6.0,73,0.00,,---,0.00,VWS V14.01,2013-09-27 02:47:00,
2013-09-26 21:52:00,71.8,62.7,29.91,East,91,0.0,6.0,73,0.00,,---,0.00,VWS V14.01,2013-09-27 02:52:00,
2013-09-26 21:57:00,71.7,62.6,29.91,SE,145,0.0,6.0,73,0.00,,---,0.00,VWS V14.01,2013-09-27 02:57:00,
2013-09-26 22:02:00,71.6,62.5,29.91,East,95,0.0,6.0,73,0.00,,---,0.00,VWS V14.01,2013-09-27 03:02:00,
2013-09-26 22:07:00,71.5,62.8,29.91,SW,215,0.0,6.0,74,0.00,,---,0.00,VWS V14.01,2013-09-27 03:07:00,
2013-09-26 22:12:00,71.4,62.7,29.91,SE,132,3.0,6.0,74,0.00,,---,0.00,VWS V14.01,2013-09-27 03:12:00,
2013-09-26 22:17:00,71.1,62.4,29.91,SE,142,1.0,6.0,74,0.00,,---,0.00,VWS V14.01,2013-09-27 03:17:00,
2013-09-26 22:23:00,70.9,62.6,29.91,SE,137,0.0,6.0,75,0.00,,---,0.00,VWS V14.01,2013-09-27 03:23:00,
2013-09-26 22:28:00,70.9,62.6,29.92,WNW,293,0.0,6.0,75,0.00,,---,0.00,VWS V14.01,2013-09-27 03:28:00,
2013-09-26 22:33:00,70.7,62.4,29.92,SSW,209,1.0,6.0,75,0.00,,---,0.00,VWS V14.01,2013-09-27 03:33:00,
2013-09-26 22:38:00,70.6,62.7,29.92,SE,134,1.0,6.0,76,0.00,,---,0.00,VWS V14.01,2013-09-27 03:38:00,
2013-09-26 22:43:00,70.4,62.5,29.92,SSW,203,1.0,6.0,76,0.00,,---,0.00,VWS V14.01,2013-09-27 03:43:00,
2013-09-26 22:48:00,70.3,62.4,29.92,SE,146,0.0,6.0,76,0.00,,---,0.00,VWS V14.01,2013-09-27 03:48:00,
2013-09-26 22:53:00,70.1,62.6,29.92,SE,132,0.0,6.0,77,0.00,,---,0.00,VWS V14.01,2013-09-27 03:53:00,
2013-09-26 22:58:00,70.0,62.5,29.92,South,174,2.0,6.0,77,0.00,,---,0.00,VWS V14.01,2013-09-27 03:58:00,
2013-09-26 23:01:00,69.9,62.4,29.92,SW,226,0.0,2.0,77,0.00,,---,0.00,VWS V14.01,2013-09-27 04:01:00,
2013-09-26 23:02:00,69.9,62.4,29.92,ESE,113,2.0,2.0,77,0.00,,---,0.00,VWS V14.01,2013-09-27 04:02:00,
2013-09-26 23:03:00,69.9,62.4,29.92,SE,127,1.0,2.0,77,0.00,,---,0.00,VWS V14.01,2013-09-27 04:03:00,
2013-09-26 23:04:00,69.8,62.3,29.92,SE,131,1.0,2.0,77,0.00,,---,0.00,VWS V14.01,2013-09-27 04:04:00,
2013-09-26 23:09:00,69.7,62.5,29.92,ESE,120,1.0,4.0,78,0.00,,---,0.00,VWS V14.01,2013-09-27 04:09:00,
2013-09-26 23:14:00,69.6,62.4,29.93,ESE,105,0.0,4.0,78,0.00,,---,0.00,VWS V14.01,2013-09-27 04:14:00,
2013-09-26 23:20:00,69.4,62.2,29.93,East,86,1.0,4.0,78,0.00,,---,0.00,VWS V14.01,2013-09-27 04:20:00,
2013-09-26 23:25:00,69.3,62.5,29.93,SW,220,0.0,4.0,79,0.00,,---,0.00,VWS V14.01,2013-09-27 04:25:00,
2013-09-26 23:30:00,69.2,62.4,29.93,East,89,1.0,2.0,79,0.00,,---,0.00,VWS V14.01,2013-09-27 04:30:00,
2013-09-26 23:35:00,69.1,62.3,29.93,ESE,109,0.0,3.0,79,0.00,,---,0.00,VWS V14.01,2013-09-27 04:35:00,
2013-09-26 23:41:00,68.9,62.1,29.93,SSE,153,0.0,3.0,79,0.00,,---,0.00,VWS V14.01,2013-09-27 04:41:00,
2013-09-26 23:46:00,68.7,62.3,29.93,SE,136,3.0,4.0,80,0.00,,---,0.00,VWS V14.01,2013-09-27 04:46:00,
2013-09-26 23:51:00,68.6,62.2,29.94,ESE,123,2.0,4.0,80,0.00,,---,0.00,VWS V14.01,2013-09-27 04:51:00,
2013-09-26 23:56:00,68.5,62.1,29.94,SE,136,0.0,4.0,80,0.00,,---,0.00,VWS V14.01,2013-09-27 04:56:00,